Notices

What's New in latest Release from April 7th, 2021:

- Updated Glossary, including Speed of Maximum Gust, and Total Hourly Precipitation

- Updated national and regional climate services offices contacts and prices information

- Addition of station inventory lists for 1981-2010, 1971-2000, and 1961-1990 Normals.

If you haven't already, please take our survey and provide feedback about our website: https://eccc.sondage-survey.ca/f/LanguageSelection.aspx?s=442ca660-fcf1-47c0-95a9-59707d6fd709

Hourly Data Report for October 22, 2020

CARBERRY CS
MANITOBA
Current Station Operator: ECCC - MSC

49°54'20.900" N
99°21'26.800" W
383.50 m
5010547
71170
WZE

Download Data

Hourly Data (October 2020)
Hourly Data Report for October 22, 2020
TIME
LST
Temp Definition
°C
Dew Point Definition
°C
Rel Hum Definition
%
Precip. Amount Definition
mm

Wind Dir Definition
10's deg

Wind Spd Definition
km/h
Visibility Definition
km
Stn Press Definition
kPa
Hmdx Definition


Wind Chill Definition


Weather Definition


00:00 -2.3 -3.0 95 0.0 31 4   97.79   -4 LegendNANA
01:00 -2.3 -3.1 94 0.0 1 2   97.81   -3 LegendNANA
02:00 -4.2 -4.2 100 0.0 29 5   97.88   -6 LegendNANA
03:00 -4.0 -4.8 94 0.0 32 4   97.90   -6 LegendNANA
04:00 -4.4 -5.6 91 0.0 36 5   97.93   -7 LegendNANA
05:00 -5.0 -5.8 94 0.0 0 1   97.96   -5 LegendNANA
06:00 -5.4 -5.8 97 0.0   0   98.01     LegendNANA
07:00 -5.5 -6.2 95 0.0 36 1   98.02   -6 LegendNANA
08:00 -4.6 -6.3 88 0.0 34 4   98.08   -6 LegendNANA
09:00 -4.2 -7.6 78 0.0 1 4   98.14   -6 LegendNANA
10:00 -3.0 -8.2 67 0.0 2 4   98.16   -5 LegendNANA
11:00 -1.6 -8.4 60 0.0 35 5   98.20   -3 LegendNANA
12:00 -0.9 -8.7 56 0.0 33 5   98.19   -3 LegendNANA
13:00 -0.5 -8.9 53 0.0 30 5   98.19   -2 LegendNANA
14:00 -0.2 -8.0 56 0.0 27 5   98.21   -2 LegendNANA
15:00 -0.4 -7.7 58 0.0 27 14   98.18   -5 LegendNANA
16:00 -0.6 -6.6 64 0.0 29 14   98.21   -5 LegendNANA
17:00 -1.4 -5.1 76 0.0 26 15   98.25   -6 LegendNANA
18:00 -2.0 -5.8 75 0.0 28 18   98.28   -7 LegendNANA
19:00 -2.9 -5.5 82 0.0 28 15   98.30   -8 LegendNANA
20:00 -3.0 -5.1 85 0.0 27 16   98.33   -8 LegendNANA
21:00 -3.5 -4.8 91 0.0 26 16   98.32   -9 LegendNANA
22:00 -4.3 -4.7 97 0.0 26 15   98.32   -10 LegendNANA
23:00 -5.4 -6.6 91 0.0 28 11   98.30   -10 LegendNANA

Notes on Data Quality.

Legend

  • E = Estimated
  • M = Missing
  • NA = Not Available*
  • [empty] = Indicates an unobserved value
Date modified: